一网星座-0634星 (ONEWEB-0634)

导读 | 星芒AI

ONEWE-0634 是 OneWeb 卫星通信网络中的一颗低轨通信卫星,旨在为全球提供高速互联网接入。该卫星属于 OneWeb 计划部署的数百颗卫星之一,支持偏远和未覆盖地区的通信需求。其设计具备高容量和低延迟特性,采用先进通信技术,以增强全球连接能力。该卫星由阿丽亚娜航天公司制造,并通过联盟号火箭发射入轨,是实现 OneWeb 全球宽带愿景的重要组成部分。

基本信息
目录编号:
56075
目录名称:
ONEWEB-0634
国际标识:
2023-043AF
轨道中心:
EARTH
卫星名称:
一网星座-0634星
卫星全名:
一网星座-0634星 (ONEWEB-0634)
卫星状态:
在轨 (已飞行949 天)
发射日期:
2023-03-26 UTC
国别 :
英国 (GB)
星等 :
--
轨道信息
数据来源 国际轨道数据
星历时间: 2025-10-30T02:30:37+0800
10小时前
查看轨道信息
半长轴: 7579.885km
偏心率: 0.0002095
轨道倾角: 87.897°
近地点辐角 83.463°
升交点赤经 305.215°
平近点角 276.674°
近地点: 1200.162km
远地点: 1203.338km
周期: 109.460分钟
每日圈数: 13.155546
详细信息
平衡模式:
三轴稳定
覆盖范围:
全球
运营商:
一网卫星公司
运营商所在国:
英国
制造商(研发单位):
一网卫星公司
制造商所在国:
英国
使用方式:
暂无
卫星简介
OneWeb卫星网络由648颗重约125公斤的微型卫星组成,运行在1200公里的轨道上。 每颗卫星都能够提供至少每秒8千兆位的吞吐量,以使用其高吞吐量的Ku频段有效载荷为家庭和移动平台提供互联网接入。该卫星仍在工作。
2D轨道图
3D轨道图
轨道高度分析图
轨道倾角分析图
轨道综合分析图
查看轨道综合分析图